Granada, Spain

9:48 AM CEST on March 28, 2017 (GMT +0200)
Granada

Weather History for LEGR - October, 2013

Change the Weather History Date:

Thursday, October 31, 2013

  Actual Average Record
Temperature  
Mean Temperature 50 °F -  
Max Temperature 69 °F 60 °F 80 °F (2001)
Min Temperature 32 °F 38 °F 32 °F (2013)
Degree Days  
Heating Degree Days 14    
Moisture  
Dew Point 31 °F    
Average Humidity 51    
Maximum Humidity 93    
Minimum Humidity 7    
Precipitation  
Precipitation 0.00 in - - ()
Sea Level Pressure  
Sea Level Pressure 30.22 in    
Wind  
Wind Speed 1 mph ()    
Max Wind Speed 6 mph    
Max Gust Speed -    
Visibility 11.5 miles    
Events      
Averages and records for this station are not official NWS values.
T = Trace of Precipitation, MM = Missing Value Source: Averaged Metar Reports

Daily Weather History Graph

Daily Weather History Graph

Search for Another Location

Airport or City:

Trip Planner

Search our weather history database for the weather conditions in past years. The results will help you decide how hot, cold, wet, or windy it might be!

Date:

Astronomy

Oct. 31, 2013 Rise Set
Actual Time 7:38 AM CET 6:18 PM CET
Civil Twilight 7:11 AM CET 6:45 PM CET
Nautical Twilight 6:40 AM CET 7:16 PM CET
Astronomical Twilight 6:10 AM CET 7:46 PM CET
Moon 4:17 AM CET (10/31) 4:25 PM CET (10/31)
Length of Visible Light 11h 33m
Length of Day
10h 39m
Waning Crescent, 11% of the Moon is Illuminated
Oct 31
Waning Crescent
Nov 3
New
Nov 10
First Quarter
Nov 17
Full
Nov 25
Last Quarter

Hourly Weather History & Observations

Time (CET) Temp. Dew Point Humidity Pressure Visibility Wind Dir Wind Speed Gust Speed Precip Events Conditions
1:00 AM 40 °F 31 °F 61% 30.27 in 19 mi SW 2.3 mph - -  
6:00 AM 33.8 °F 32.0 °F 93% 30.21 in - Variable 1.2 mph - N/A   Clear
6:30 AM 35.6 °F 32.0 °F 87% 30.21 in - Variable 1.2 mph - N/A   Clear
7:00 AM 33 °F 29 °F 81% 30.32 in 19 mi Calm Calm - -  
7:00 AM 33.8 °F 30.2 °F 87% 30.21 in - Calm Calm - N/A   Clear
7:30 AM 33.8 °F 32.0 °F 93% 30.24 in - Calm Calm - N/A   Clear
8:00 AM 33.8 °F 30.2 °F 87% 30.24 in - Calm Calm - N/A   Clear
8:30 AM 35.6 °F 32.0 °F 87% 30.24 in - Calm Calm - N/A   Clear
9:00 AM 39.2 °F 33.8 °F 81% 30.27 in - Calm Calm - N/A   Clear
9:30 AM 41.0 °F 35.6 °F 81% 30.27 in - Calm Calm - N/A   Clear
10:00 AM 46.4 °F 35.6 °F 66% 30.27 in - Variable 1.2 mph - N/A   Clear
10:30 AM 50.0 °F 35.6 °F 58% 30.27 in - Calm Calm - N/A   Clear
11:00 AM 51.8 °F 37.4 °F 58% 30.27 in - Variable 1.2 mph - N/A   Clear
11:30 AM 55.4 °F 35.6 °F 47% 30.24 in - Variable 1.2 mph - N/A   Clear
12:00 PM 57.2 °F 35.6 °F 44% 30.24 in - Variable 1.2 mph - N/A   Clear
12:30 PM 59.0 °F 35.6 °F 42% 30.24 in - Variable 2.3 mph - N/A   Clear
1:00 PM 62 °F 31 °F 20% 30.19 in 19 mi NNW 1.2 mph - -   Scattered Clouds
1:00 PM 62.6 °F 33.8 °F 34% 30.21 in 6.2 mi Variable 1.2 mph - N/A   Partly Cloudy
1:30 PM 64.4 °F 28.4 °F 26% 30.21 in 6.2 mi Variable 1.2 mph - N/A   Partly Cloudy
2:00 PM 66.2 °F 28.4 °F 24% 30.18 in 6.2 mi Variable 2.3 mph - N/A   Partly Cloudy
2:30 PM 66.2 °F 21.2 °F 18% 30.18 in 6.2 mi Variable 1.2 mph - N/A   Partly Cloudy
3:00 PM 68.0 °F 21.2 °F 17% 30.18 in 6.2 mi Variable 1.2 mph - N/A   Partly Cloudy
3:30 PM 68.0 °F 23.0 °F 18% 30.15 in 6.2 mi Variable 2.3 mph - N/A   Partly Cloudy
4:00 PM 68 °F 20 °F 7% 30.12 in 19 mi WNW 2.3 mph - -   Scattered Clouds
4:00 PM 68.0 °F 19.4 °F 16% 30.15 in 6.2 mi Variable 1.2 mph - N/A   Partly Cloudy
4:30 PM 69.8 °F 24.8 °F 18% 30.15 in - Variable 1.2 mph - N/A   Clear
5:00 PM 69.8 °F 30.2 °F 23% 30.18 in - Variable 2.3 mph - N/A   Clear
5:30 PM 68.0 °F 28.4 °F 23% 30.18 in - West 5.8 mph - N/A   Clear
6:00 PM 64.4 °F 30.2 °F 28% 30.18 in - West 4.6 mph - N/A   Clear
6:30 PM 59.0 °F 32.0 °F 36% 30.18 in - West 3.5 mph - N/A   Clear
7:00 PM 56 °F 34 °F 31% 30.20 in 19 mi SW 3.5 mph - -   Clear
7:00 PM 55.4 °F 35.6 °F 47% 30.21 in - Variable 2.3 mph - N/A   Clear
7:30 PM 51.8 °F 35.6 °F 54% 30.21 in - Variable 2.3 mph - N/A   Clear
8:00 PM 51.8 °F 35.6 °F 54% 30.21 in - Calm Calm - N/A   Clear
8:30 PM 53.6 °F 33.8 °F 47% 30.24 in - Variable 2.3 mph - N/A   Clear
9:00 PM 50.0 °F 33.8 °F 54% 30.24 in - Variable 2.3 mph - N/A   Clear
9:30 PM 48.2 °F 33.8 °F 58% 30.24 in - Calm Calm - N/A   Clear
10:00 PM 44.6 °F 33.8 °F 66% 30.24 in - Variable 1.2 mph - N/A   Clear
10:30 PM 44.6 °F 32.0 °F 61% 30.24 in - Variable 2.3 mph - N/A   Clear
11:00 PM 42.8 °F 33.8 °F 70% 30.27 in - Variable 1.2 mph - N/A   Clear
11:30 PM 42.8 °F 33.8 °F 70% 30.27 in - Calm Calm - N/A   Clear